TimeCDT,TemperatureF,Dew PointF,Humidity,Sea Level PressureIn,VisibilityMPH,Wind Direction,Wind SpeedMPH,Gust SpeedMPH,PrecipitationIn,Events,Conditions,WindDirDegrees,DateUTC
12:58 AM,25.5,16.5,69,30.43,10.0,NE,4.6,-,N/A,,Clear,40,2013-03-26 05:58:00
1:58 AM,28.4,16.3,61,30.43,10.0,NNW,3.5,-,N/A,,Clear,330,2013-03-26 06:58:00
2:58 AM,27.7,16.3,62,30.43,10.0,NNW,3.5,-,N/A,,Clear,330,2013-03-26 07:58:00
3:58 AM,24.8,15.8,69,30.43,10.0,NNW,6.9,-,N/A,,Clear,340,2013-03-26 08:58:00
4:58 AM,23.5,14.7,69,30.43,10.0,North,5.8,-,N/A,,Clear,10,2013-03-26 09:58:00
5:58 AM,23.4,15.8,73,30.43,10.0,NE,3.5,-,N/A,,Clear,40,2013-03-26 10:58:00
6:58 AM,21.7,14.7,74,30.45,10.0,NNE,4.6,-,N/A,,Clear,20,2013-03-26 11:58:00
7:58 AM,18.3,13.3,81,30.48,10.0,NNE,3.5,-,N/A,,Clear,20,2013-03-26 12:58:00
8:58 AM,28.9,18.7,66,30.48,10.0,ENE,4.6,-,N/A,,Clear,60,2013-03-26 13:58:00
9:58 AM,36.0,18.0,48,30.50,10.0,SSE,8.1,-,N/A,,Clear,150,2013-03-26 14:58:00
10:58 AM,41.4,17.4,38,30.48,10.0,SSE,10.4,-,N/A,,Clear,160,2013-03-26 15:58:00
11:58 AM,45.7,18.0,33,30.45,10.0,South,12.7,-,N/A,,Clear,180,2013-03-26 16:58:00
12:58 PM,48.4,19.0,31,30.43,10.0,South,8.1,21.9,N/A,,Clear,180,2013-03-26 17:58:00
1:58 PM,51.3,19.4,29,30.37,10.0,South,10.4,23.0,N/A,,Clear,190,2013-03-26 18:58:00
2:58 PM,54.1,20.1,26,30.33,10.0,SSE,12.7,-,N/A,,Clear,150,2013-03-26 19:58:00
3:58 PM,56.7,20.5,25,30.29,10.0,South,17.3,20.7,N/A,,Clear,170,2013-03-26 20:58:00
4:57 PM,59.0,19.4,22,30.22,10.0,SSE,16.1,23.0,N/A,,Clear,150,2013-03-26 21:57:00
4:58 PM,58.6,20.1,22,30.24,10.0,SSE,16.1,23.0,N/A,,Clear,150,2013-03-26 21:58:00
5:58 PM,59.5,19.6,21,30.22,10.0,SSE,17.3,-,N/A,,Clear,160,2013-03-26 22:58:00
6:58 PM,59.0,19.4,22,30.20,10.0,SSE,15.0,-,N/A,,Clear,160,2013-03-26 23:58:00
7:58 PM,51.8,19.9,29,30.21,10.0,SE,10.4,-,N/A,,Clear,130,2013-03-27 00:58:00
8:58 PM,48.7,19.9,32,30.19,10.0,ESE,16.1,25.3,N/A,,Clear,120,2013-03-27 01:58:00
9:58 PM,47.1,20.5,35,30.20,10.0,SE,13.8,-,N/A,,Clear,130,2013-03-27 02:58:00
10:58 PM,45.5,21.6,39,30.20,10.0,SE,13.8,24.2,N/A,,Clear,130,2013-03-27 03:58:00
11:58 PM,43.0,23.0,45,30.18,10.0,SE,15.0,-,N/A,,Clear,130,2013-03-27 04:58:00